Regional Weather Roundup
Issued by NWS Pendleton, OR

Home | Current Version | Previous Version | Text Only | Print | Product List | Glossary On
Versions: 1 2 3 4 5 6 7 8 9 10 11 12 13 14 15 16 17 18 19 20 21 22 23 24 25 26 27 28 29 30 31 32 33 34 35 36 37 38 39 40 41 42 43 44 45 46 47 48 49 50
000
ASUS46 KPDT 231025
RWRPDT
PENDLETON REGIONAL WEATHER ROUNDUP
NATIONAL WEATHER SERVICE PENDLETON OREGON
300 AM PDT TUE SEP 23 2014

NOTE: FAIR INDICATES FEW OR NO CLOUDS BELOW 12,000 FEET WITH NO
SIGNIFICANT WEATHER AND/OR OBSTRUCTIONS TO VISIBILITY.

# INDICATES UNOFFICIAL STATION AND DATA

WAZ520-231110-
EAST SLOPES OF WASHINGTON CASCADES

CITY            SKY/WX      TMP DP  RH  WIND    PRES   REMARKS
#BUMPING DAM    N/A         55  N/A N/A CALM    N/A
#CLE ELUM HS    N/A         56  51  83  CALM    29.88F
#CLE ELUM 2NW   N/A         55  50  83  N1      N/A
#CLE ELUM LAKE  N/A         56  49  77  SE1     29.80F
#CLIFFDEL 2NW   N/A         56  47  72  CALM    N/A
#GLENWOOD       N/A         51  48  89  CALM    29.86F
#MANASTASH CYN  N/A         55  43  64  CALM    29.92F
#NELSON         N/A         56  52  86  CALM    29.86F
#NELSON 3SW     N/A         54  49  83  CALM    30.03F
#NILE           N/A         57  48  72  CALM    29.13F
#SNOWDEN        N/A          0  -78  1  CALM    N/A
#TEANAWAY 4NE   N/A         54  51  90  CALM    N/A
#TROUT LAKE 1NE N/A         54  49  83  CALM    29.85F
$$

WAZ521-231110-
SIMCOE HIGHLANDS

CITY            SKY/WX      TMP DP  RH  WIND    PRES   REMARKS
#BICKLETON HS   N/A         59  35  40  NW5     30.03S
#CENTERVILLE 4W N/A         60  49  67  N9      29.68F
#CENTERVILLE 1SWN/A         55  44  66  CALM    29.82F
#GOLDENDALE     N/A         58  45  62  W2      N/A
#GOLDENDALE 1S  N/A         58  47  67  CALM    29.89F
#GOLDENDALE 5WNWN/A         59  45  60  NW1     29.82F
#GOODNOE HILLS  N/A         62  51  67  W6      29.83F
#LYLE 6NE       N/A         59  51  75  CALM    29.83F
$$

WAZ026-231110-
KITTITAS VALLEY

CITY            SKY/WX      TMP DP  RH  WIND    PRES   REMARKS
ELLENSBURG AP   MOCLDY      60  50  69  NE7     29.89F
#ELLENSBURG CWU N/A         57  52  83  N5      29.80F
#ELLENSBURG 3NE N/A         55  51  86  NE3     29.91F
#ELLENSBURG     N/A         60  56  87  SW1     N/A
#KITTITAS 3S    N/A         52  49  89  CALM    29.83F
#THORP 6N       N/A         56  50  80  CALM    29.85F
$$

WAZ027-231110-
YAKIMA VALLEY

CITY            SKY/WX      TMP DP  RH  WIND    PRES   REMARKS
SUNNYSIDE AP    PTCLDY      59  52  78  CALM    29.86F
YAKIMA AIRPORT  MOCLDY      63  50  62  W7      29.89F
YAKIMA-VAGABOND MOCLDY      64  45  50  S2      29.89F
#COWICHE 1N     N/A         62  48  60  NW1     30.07F
#DONALD 2NE     N/A         65  43  45  S1      30.21F
#GRANDVIEW      N/A         64  50  60  CALM    29.84F
#MABTON         N/A         66  53  63  E2      29.85F
#MOXEE 2E       N/A         60  39  46  NE3     29.85S
#NACHES 2SW     N/A         60  51  72  CALM    29.92S
#OUTLOOK DOT    N/A         N/A N/A N/A NE8     N/A
#SELAH 8E       N/A         63  39  41  S6      N/A
#TERRACE HTS    N/A         64  47  54  CALM    29.80F
#TOPPENISH      N/A         63  50  62  CALM    29.76F
#WAPATO 4NE     N/A         65  43  45  S1      30.21F
#W YAKIMA       N/A         64  49  58  CALM    29.83F
#WHITE SWAN 5E  N/A         60  49  67  CALM    29.85R
#WILEY CITY 3W  N/A         58  45  62  CALM    29.89S
$$

WAZ028-231110-
LOWER COLUMBIA BASIN...WASHINGTON

CITY            SKY/WX      TMP DP  RH  WIND    PRES   REMARKS
HANFORD         CLOUDY      70  51  51  E8      29.87F
PASCO           CLOUDY      66  63  90  E5      29.86F
PROSSER AWOS    N/A         63  52  67  NW2     29.88F
RICHLAND AWOS   CLOUDY      66  61  84  NE6     29.86F
#BASIN CITY 5SW N/A         64  58  81  CALM    29.86F
#BENTON CITY    N/A         67  53  61  CALM    29.73F
#CONNELL 5N     N/A         66  57  73  SW1     29.84F
#CONNELL 5NW    N/A         66  57  73  CALM    29.80F
#ELTOPIA        N/A         66  59  78  CALM    29.80F
#ELTOPIA 6NW    N/A         65  59  81  CALM    28.84F
#KENNEWICK 3S   N/A         66  59  78  CALM    29.83F
#PASCO-BROADMOORN/A         67  61  81  CALM    29.73F
#PATERSON       N/A         67  58  73  E1      29.82F
#PROSSER        N/A         69  46  44  CALM    29.82F
#SAGEMOOR 2W    N/A         64  60  87  CALM    29.70F
#TOUCHET 2S     N/A         64  60  87  CALM    29.83F
#WEST PASCO     N/A         67  59  75  CALM    29.83F
$$

WAZ029-231110-
FOOTHILLS OF THE BLUES...WASHINGTON

CITY            SKY/WX      TMP DP  RH  WIND    PRES   REMARKS
WALLA WALLA AP  PTCLDY      66  59  78  E8      29.92S
#DAYTON SCHOOL  N/A         62  54  75  CALM    29.92S
#LOWDEN 2SE     N/A         63  60  90  E5      29.83F
#PLEASANT VIEW 1N/A         65  53  65  CALM    29.88F
#PRESCOTT       N/A         63  59  87  CALM    29.86R
#SUDBURY        N/A         66  N/A N/A NE6     N/A
#WHITMAN COLLEGEN/A         66  58  75  E3      29.89F
#WAITSBURG 8N   N/A         62  50  65  CALM    29.85S
#WALLA WALLA 5E N/A         64  59  84  W7      N/A
#WALLA WALLA U  N/A         65  61  87  CALM    29.84F
#WHITMAN MISSIONN/A         63  60  90  CALM    29.86F
$$

WAZ030-231110-
BLUE MOUNTAINS...WASHINGTON

CITY            SKY/WX      TMP DP  RH  WIND    PRES   REMARKS
$$

ORZ009-041-WAZ024-231110-
COLUMBIA RIVER GORGE

CITY            SKY/WX      TMP DP  RH  WIND    PRES   REMARKS
HOOD RIVER AP   PTCLDY      57  54  90  CALM    29.90F
THE DALLES AP   PTCLDY      63  52  67  SE5     29.88F
#ARLINGTON AIRPON/A         65  52  63  W8      29.90F
#ARLINGTON HS   N/A         67  52  59  W1      29.74F
#MARYHILL 2W    N/A         66  54  65  CALM    N/A
#MOSIER 1S      N/A         60  47  62  CALM    29.91F
#MURDOCK        N/A         66  56  70  W3      29.88F
#RUFUS DOT      N/A         66  54  65  N3      N/A

$$

ORZ510-231110-
NORTH CENTRAL OREGON

CITY            SKY/WX      TMP DP  RH  WIND    PRES   REMARKS
#CHENOWITH 1W   N/A         59  50  72  NW7     N/A
#COW CYN RST AREN/A         63  41  44  NE3     N/A
#DUFUR 9E       N/A         63  49  60  CALM    29.89F
#GRASS VALLEY   N/A         57  46  67  S1      N/A
#GRASS VALLEY 1SN/A         60  47  62  CALM    29.85F
#KENT DOT       N/A         61  41  48  N3      N/A
#MAUPIN SCHOOL  N/A         65  51  60  CALM    28.77F
#MORO SCHOOL    N/A         57  52  83  CALM    29.93F
#SHANIKO 5WSW   N/A         61  41  48  N3      N/A
#SHANIKO 4NW    N/A         60  41  49  NW3     29.98F
#TYGH VALLEY 2NEN/A         63  48  58  CALM    29.83F
#WAPANITIA AIRPON/A         61  48  62  W1      29.83F
#WASCO DOT      N/A         56  50  80  CALM    N/A
#WASCO AIRPORT  N/A         59  47  64  SW1     N/A
#WASCO 5NE      N/A         60  49  67  W1      29.84F
$$

ORZ511-231110-
CENTRAL OREGON

CITY            SKY/WX      TMP DP  RH  WIND    PRES   REMARKS
BEND AIRPORT    MOCLDY      57  45  64  S6      29.97F
MADRAS AIRPORT  PTCLDY      59  48  67  S3      29.95F
REDMOND AIRPORT MOCLDY      55  47  74  SE7     29.95F
#BEND 6E        N/A         57  44  62  CALM    29.73F
#BEND 1SW       N/A         55  44  66  NW1     N/A
#BEND-AWBREY    N/A         59  43  55  CALM    29.80F
#BEND-KIM LN    N/A         58  46  64  SW2     29.94F
#CROOKED RVR RANN/A         61  52  72  SW24    29.79F
#CULVER         N/A         60  51  72  CALM    29.90F
#LAKE BILLY CHINN/A         63  15  15  CALM    29.96F
#POWELL BUTTE   N/A         59  46  62  S1      29.60F
#PRINEVILLE 3N  N/A         56  52  86  CALM    29.78F


ORZ509-231110-
EAST SLOPES OF OREGON CASCADES

CITY            SKY/WX      TMP DP  RH  WIND    PRES   REMARKS
#BLUE BOX PASS  N/A         58   5  12  NE3     N/A
#CAMP SHERMAN   N/A         52  39  61  CALM    29.83R
#LA PINE DOT    N/A         48  41  77  E2      N/A
#LA PINE 4NW    N/A         47  39  74  CALM    29.88F
#LAVA BUTTE DOT N/A         51  41  68  W7      N/A
#SISTERS AIRPOR N/A         54  48  80  CALM    29.91S
#SISTERS ODOT   N/A         53  N/A N/A CALM    N/A
#SISTERS 1NW    N/A         54  40  59  NE7     N/A
#SISTERS 3N     N/A         52  36  54  CALM    N/A
#SUNRIVER       N/A         51  46  83  CALM    29.72F
#SUNRIVER AP    N/A         49  44  83  CALM    29.79F
#SUTTLE LK DOT  N/A         50  41  71  W22G31  N/A
#TUMALO 3W      N/A         63  39  41  CALM    29.69F
#WANOGA BUTTE D N/A         55  42  61  CALM    N/A

$$

ORZ044-231110-
LOWER COLUMBIA BASIN...OREGON

CITY            SKY/WX      TMP DP  RH  WIND    PRES   REMARKS
HERMISTON       MOCLDY      63  57  81  S6      29.86F
#BOARDMAN SCHOOLN/A         68  53  59  CALM    29.84F
#BOARDMAN 3W    N/A         61  55  81  E3      29.53F
#BOARDMAN 8SW   N/A         64  55  73  CALM    29.84F
#ECHO 8SW       N/A         64  54  70  CALM    29.84F
#IONE SCHOOL    N/A         63  50  62  CALM    29.88F
#IRRIGON 4NW    N/A         63  57  81  E2      N/A
#UMATILLA SCHOOLN/A         65  64  97  CALM    29.94F
#UMATILLA       N/A         66  56  70  CALM    29.83F
$$

ORZ507-231110-
NORTHERN FOOTHILLS OF THE BLUES

CITY            SKY/WX      TMP DP  RH  WIND    PRES   REMARKS
PENDLETON AIRPT MOCLDY      63  57  81  SE7     29.90F
#ADAMS 3WNW     N/A         62  57  84  CALM    29.84F
#ATHENA         N/A         62  57  84  CALM    29.86F
#HELIX SCHOOL   N/A         63  57  81  SE1     29.84F
#HELIX 3N       N/A         62  56  81  SE3     29.88F
#HELIX 6SW      N/A         64  57  78  E5      29.90
#HOLDMAN 5SE    N/A         63  57  81  CALM    29.90F
#HOLDMAN 6E     N/A         63  56  78  CALM    29.65F
#M-F GROVE ELEM N/A         66  56  70  CALM    29.88F
#M-FREEWATER 5SEN/A         62  57  84  CALM    29.91S
#PENDLETON DNTN N/A         62  60  93  CALM    29.91F
#PDT AQUATIC CTRN/A         64  56  75  CALM    29.91F
#PENDLETON 5NE  N/A         61  57  87  SE2     29.87
#PDT SUNRIDGE   N/A         62  57  84  CALM    29.90F
#PENDLETON 7NW  N/A         62  56  81  CALM    25.73S
#PILOT ROCK     N/A         60  53  78  CALM    29.93F
#TUTUILLA       N/A         61  56  84  CALM    29.87F

$$

ORZ508-231110-
SOUTHERN FOOTHILLS OF THE BLUES

CITY            SKY/WX      TMP DP  RH  WIND    PRES   REMARKS
LEXINGTON       PTCLDY      64  54  70  SE8     29.90F
#AJAX           N/A         64  40  41  CALM    29.87F
#CONDON SCHOOL  N/A         62  55  78  CALM    29.91F
#CONDON 5W      N/A         61  50  67  E3      29.93F
#FOSSIL SCHOOL  N/A         60  54  81  CALM    29.91F
#HEPPNER 4NE    N/A         59  50  72  E1      29.82F
#LEXINGTON 2SE  N/A         64  55  73  SE5     29.85F
#MIKKALO        N/A         63  47  56  CALM    29.91F
#OLEX 4N        N/A         63  51  65  SW3     29.88S
#RUGGS 5NE      N/A         60  51  72  E2      30.11S
#RUGGS 2SW      N/A         62  54  75  S3      29.83F

$$

ORZ502-503-231110-
BLUE MOUNTAINS

CITY            SKY/WX      TMP DP  RH  WIND    PRES   REMARKS
MEACHAM         MOCLDY      56  55  96  CALM    30.01F
#BATTLE MTN DOT N/A         53  53  100 S2      N/A
#HARDMAN 10S    N/A         55  52  90  CALM    30.06F
#HEPPNER 15SE   N/A         55  50  83  CALM    29.91F
#LADD CYN SMT   N/A         55  51  86  S2      N/A
#LADD CREEK ODOTN/A         56  55  96  CALM    N/A
#N POWDER DOT   N/A         54  54  100 SW2     N/A
#PIKES PEAK     N/A         64  50  60  NE2     27.99S
#TOLLGATE       N/A         53  51  93  CALM    29.99F
#TROY SCHOOL    N/A         61  59  93  CALM    29.78S
#UKIAH          N/A         53  52  96  CALM    29.90F
#WESTON 4E      N/A         61  52  72  SE5     29.78S
$$

ORZ505-231110-
JOHN DAY BASIN

CITY            SKY/WX      TMP DP  RH  WIND    PRES   REMARKS
JOHN DAY        PTCLDY      59  55  87  NE6     29.99F
#JOHN DAY KJDY  N/A         58  53  83  CALM    30.07F
#MONUMENT HS    N/A         59  56  90  CALM    29.96F
#MT. VERNON 5SE N/A         62  52  70  E3      29.95F
#WINLOCK        N/A         56  52  86  CALM    30.05F
$$

ORZ506-231110-
OCHOCO AND JOHN DAY HIGHLANDS

CITY            SKY/WX      TMP DP  RH  WIND    PRES   REMARKS
#BUCK CREEK DOT N/A         58  56  93  SE9     N/A
#HORSE RIDGE DO N/A         46  44  93  SE1     N/A
#KEYES SMT DOT  N/A         55  52  90  E2      N/A
#PAULINA SCHOOL N/A         49  46  89  CALM    30.00F
#PINE MTN OBS   N/A         55  45  69  SE7     N/A
#PRAIRIE CITY   N/A         51  50  96  CALM    29.99F
#SENECA 9NW     N/A         49  48  96  CALM    29.85F
$$

ORZ049-231110-
GRANDE RONDE VALLEY

CITY            SKY/WX      TMP DP  RH  WIND    PRES   REMARKS
LA GRANDE       PTCLDY      59  48  67  NW6     29.99F
#COVE           N/A         56  56  100 CALM    29.92F
#COVE SCHOOL    N/A         56  54  93  CALM    29.98F
#COVE 6NW       N/A         56  53  90  CALM    29.91F
#ELGIN 3N       N/A         57  54  90  CALM    29.73F
#ELGIN 1E       N/A         58  53  83  CALM    N/A
#IMBLER SCHOOL  N/A         57  49  75  N3      29.95F
#LADD CYN DOT   N/A         58  56  93  CALM    N/A
#LA GRANDE ELEM N/A         58  55  90  SW1     29.98S
#UNION 1S       N/A         60  56  87  CALM    29.77F
$$

ORZ050-231110-
WALLOWA COUNTY

CITY            SKY/WX      TMP DP  RH  WIND    PRES   REMARKS
JOSEPH AIRPORT  CLOUDY      55  52  90  CALM    30.04F
#ENTERPRISE AP  N/A         55  51  86  CALM    29.96F
#ENTERPRISE HS  N/A         56  53  90  CALM    30.03F
#IMNAHA SCHOOL  N/A         62  58  87  CALM    29.93F
#IMNAHA 10S     N/A         57  53  86  CALM    29.98F
#JOSEPH 3N      N/A         55  51  86  CALM    30.04F
#JOSEPH 3W      N/A         56  51  83  CALM    29.89F
#LOSTINE        N/A         54  52  93  CALM    29.70S
#MT HOWARD 8000 N/A         52  39  61  SE12    30.22F
#PROMISE 1S     N/A         55  54  96  SE3     29.99S
#SHEEP RDG 7000 N/A         57  39  51  CALM    29.80F
#WALLOWA SCHOOL N/A         56  55  96  CALM    30.80F



$$



USA.gov is the U.S. government's official web portal to all federal, state and local government web resources and services.